User: anonymous   Login
Location: Peebles
(55.6412°N, 3.1714°W)
Time: 00:11:37
(UTC+01:00)
Language:

FENGYUN 1C DEB - Orbit

View from above orbital plane
View from above orbital plane
View from above satellite
View from above satellite

Ground track
Ground track

The orbit data is extracted from the following two-line orbital elements,

1 31420U 99025BTG 22265.32746708  .00000751  00000-0  25284-3 0  9996
2 31420  97.5119 293.4201 0150776 327.5366  93.1131 14.33300029480884
Epoch (UTC): 22 September 2022 07:51:33
Eccentricity: 0.0150776
inclination: 97.5119°
perigee height: 673 km
apogee height: 888 km
right ascension of ascending node: 293.4201°
argument of perigee: 327.5366°
revolutions per day: 14.33300029
mean anomaly at epoch: 93.1131°
orbit number at epoch: 48088

The dashed part of the orbit path shows where the satellite is in the earth's shadow,  

DLR